Location: Siratepeler Tepesi
(39.1042°N, 32.0781°E)
Time: 10:52:06
(UTC+00:00)

USA 234 - Pass Details

Date: 11 April 2026
Orbit: 1102 x 1106 km, 123.0° (Epoch: 4 January)

Event Time Altitude Azimuth Distance (km) Brightness Sun altitude
Rises 17:40:29 0° 42° (NE) 3,926 6.0 -14.7°
Reaches altitude 10° 17:43:06 10° 36° (NE) 2,967 5.4 -15.2°
Maximum altitude 17:49:08 41° 328° (NNW) 1,542 4.5 -16.3°
Drops below altitude 10° 17:55:10 10° 261° (W) 2,961 6.3 -17.3°
Sets 17:57:47 0° 255° (WSW) 3,917 6.9 -17.8°
